Weather in Bredy

Russia / Chelyabinsk Oblast     52°25′20″N   60°20′12″E
В апреле 2022 года жителям России запретили посещать сайт meteo.paraplan.net по решению Генеральной прокуратуры. Аудитория сайта уменьшилась в 10 раз. Владельцы сайта не видят смысла в поддержке погодного сервера в таких условиях. Сайт будет закрыт в октябре.
temp.,
°C
wind,
m/s
gust,
m/s
humid.,
%
clouds,
%
prec.,
mm/h
press.,
hPa
HPBL,
m
3 october, mon
mon323:00+6sse3738100 0.0 1030193
02:00+6sse3637100 0.0 1029164
05:00+6s364182 0.0 1030156
08:00+5s224126 0.0 103036
11:00+9sse34295 0.0 1030490
14:00+12se33295 0.0 1029795
17:00+12se33315 0.0 1029793
20:00+8se33375 0.0 103125
4 october, tue
tue423:00+6sse223726 0.0 103216
02:00+5sse223739 0.0 103216
05:00+4s22395 0.0 103310
08:00+4s22405 0.0 103413
11:00+9sse23275 0.0 1035422
14:00+12sse33210 0.0 1034811
17:00+13s23240 0.0 1034568
20:00+8se3332100 0.0 103523
5 october, wed
wed523:00+7s333538 0.0 103623
02:00+5s333983 0.0 103627
05:00+4s334387 0.0 103638
08:00+5ssw3444100 0.0 103768
11:00+10s4530100 0.0 1035433
14:00+13s462392 0.0 1034781
17:00+13ssw4626100 0.0 1033396
20:00+9s3333100 0.0 103327
6 october, thu
thu623:00+9s3532100 0.0 103281
02:00+8s3432100 0.0 103157
05:00+8s3733100 0.0 1029107
08:00+7s4934100 0.0 1028147
11:00+12ssw51024100 0.0 1027403
14:00+15ssw71019100 0.0 1024733
17:00+14ssw51021100 0.0 1022397
20:00+11s41227100 0.0 1022252
7 october, fri
fri723:00+11s41027100 0.0 1020196
02:00+11s51228100 0.0 1018258
05:00+10s71360100 0.2 1017395
08:00+9sw596899 0.0 1016365
11:00+11wsw686696 0.1 1016738
14:00+13w7104977 0.3 10141841
17:00+12w6949100 0.4 10151737
20:00+8w610605 0.1 1016478